STARLINK-33795, 63457

Orbit data source: Space-Track

STARLINK-33795, 63457 is a payload satellite owned by SpaceX/Seattle (US) in LEO that was launched on Fri, 04 Apr 2025 UTC via an FALCON 9 launch vehicle from the Air Force Western Test Range (AFWTR). Payload-class satellites include a variety of spacecraft equipped with specific instruments for various scientific and technological missions. These include communications satellites like Starlink; space stations such as the ISS; scientific satellites like the Hubble; Earth observation satellites from companies like Planet Labs, Umbra, and HawkEye 360; GPS; miniature CubeSats for education and research; and military/defense satellites.

Loading next visibility...
Identifier
63457, 2025-069AA
Orbit
LEO
Country
Flag of USUS
Related business
Manufacturer
SpaceX/Seattle
Mission
Operational Commercial Communications
Bus & Motor
STARLINK V2MO, Unknown motor
Mass
575 kg wet, ~530 kg dry
Launch date (UTC)
2025-04-04 (1 year ago)
Launch vehicle
FALCON 9
Launch site
Air Force Western Test Range (AFWTR)
Object type
Payload
Rocket body
Debris
Shape & HBR
Box + 2 Pan, 17.7 m
Radar Cross Section
36.964 m², Large (>1 m²)

Expand to show TLE details & history
Last TLE update: 1 day ago

TLE from 1 day ago
0 STARLINK-33795
1 63457U 25069AA  26144.42588425  .00047832  00000-0  11013-2 0  9994
2 63457  53.1581 148.3100 0000810  87.5732 272.5367 15.42174118 64925
Epoch: 2026-05-24T10:13Z
TLE epoch observation values (Epoch: 2026-05-24T10:13:16.399Z)
Latitude
0.00002°
Longitude
112.96348°
Altitude
440.574 km
Speed
7.649 km/s
True Right ascension
09h 53m 14s
True Declination
0° 00' 00"
Sunlit
Object was in daylight at epoch
Visualization orbit readout
Latitude
Unknown
Longitude
Unknown
Altitude
Unknown
Speed
Unknown
Apparent Right ascension
Unknown
Apparent Declination
Unknown
Sunlit
N/A
Visualization observer readout
Local Sidereal Time
03:05:14
Azimuth
Unknown
Elevation
Unknown
Doppler factor
Unknown
Orbital elements
Apogee altitude
440.504 km
Perigee altitude
439.4 km
Semi-major axis
6,818.089 km
Eccentricity
0.00008
Inclination
53.1581°
RAAN
148.31°
Arg. of periapsis
87.5732°
True anomaly
272.52743°
Mean anomaly
272.5367°
Eccentric anomaly
272.53206°
Mean motion
3.85522 °/min
Orbital period
93.38 mins
BSTAR
0.0011013
Loading maneuver chart data...
Computing Atmospheric mass density...
Loading historical data...
Loading historical data...
Loading historical data...
Loading historical data...
Loading historical data...
Loading historical data...
Loading historical data...

Documentation

Showing up to 5 results
|